User: anonymous   Login
Location: Unspecified
(0.0000°N, 0.0000°E)
Time: 21:44:12
(UTC+00:00)
Language:

COSMOS 2439 - Orbit

View from above orbital plane
View from above orbital plane
View from above satellite
View from above satellite

Ground track
Ground track

The orbit data is extracted from the following two-line orbital elements,

1 32956U 08025D   17117.73358084 +.00000009 +00000-0 -52821-5 0  9998
2 32956 082.5036 272.1313 0021111 039.9964 320.2667 12.43000280405157
Epoch (UTC): 27 April 2017 17:36:21
Eccentricity: 0.0021111
inclination: 82.5036°
perigee height: 1477 km
apogee height: 1510 km
right ascension of ascending node: 272.1313°
argument of perigee: 39.9964°
revolutions per day: 12.43000280
mean anomaly at epoch: 320.2667°
orbit number at epoch: 40515

The dashed part of the orbit path shows where the satellite is in the earth's shadow,  

DLR